Flag for Germany Weather past 2 weeks in Hannover, Lower Saxony, Germany

Now
57 °F

Fog.


Feels Like: 56 °F
Forecast: 49 / 69 °F
Wind: 7 mph from Northwest

Location: Hannover

Current Time: Sep 2, 2014 at 6:41:17 AM

Latest Report: Sep 2, 2014 at 6:20 AM


Visibility: 2 mi

Pressure: 30.09 "Hg

Humidity: 100%

Dew point: 57 °F

Location of HannoverLocation

Historic Weather in Hannover — Graph

°F

Hannover temperature yesterday

Maximum temperature yesterday: 66 °F (at 2:50 PM)
Minimum temperature yesterday: 52 °F (at 12:20 AM)
Average temperature yesterday: 58 °F

Past Weeks' High & Low Weather Summary

 TemperatureHumidityPressure
High73 °F (Aug 28, 2:50 PM)100% (Aug 25, 12:20 AM)30.09 "Hg (Aug 25, 12:20 AM)
Low43 °F (Aug 25, 5:20 AM)43% (Aug 28, 12:50 PM)29.59 "Hg (Aug 18, 5:20 AM)
Average57 °F80%29.92 "Hg
* Reported Aug 18 5:20 AM — Sep 2 5:20 AM, Hannover, Weather by CustomWeather, © 2014

Note: Actual official high and low records may vary slightly from our data, if they occured in-between our weather recording intervals... More about our weather records

Advertising

Hannover weather history for previous 24 hours

 ConditionsComfort  
Time TempWeatherWind HumidityBarometerVisibility
5:20 AM
Sep 2
57 °FDrizzle. Fog.9 mph100%30.09 "Hg2 mi
4:50 AM57 °FDrizzle. Fog.8 mph100%30.09 "Hg2 mi
4:20 AM57 °FFog.9 mph100%30.09 "Hg3 mi
3:50 AM57 °FPassing clouds.8 mph100%30.09 "Hg4 mi
3:20 AM57 °FPartly cloudy.9 mph100%30.09 "Hg5 mi
2:50 AM57 °FPassing clouds.8 mph100%30.09 "Hg5 mi
2:20 AM57 °FPassing clouds.7 mph100%30.09 "HgN/A
1:50 AM57 °FPassing clouds.5 mph100%30.09 "HgN/A
1:20 AM59 °FPassing clouds.7 mph94%30.09 "HgN/A
12:50 AM59 °FPartly cloudy.7 mph94%30.09 "HgN/A
12:20 AM59 °FPassing clouds.7 mph94%30.09 "HgN/A
11:50 PM
Sep 1
59 °FPassing clouds.8 mph94%30.09 "HgN/A
11:20 PM59 °FClear.7 mph94%30.09 "Hg10 mi
10:20 PM59 °FPassing clouds.8 mph94%30.09 "HgN/A
9:50 PM59 °FPassing clouds.8 mph94%30.09 "HgN/A
9:20 PM59 °FPartly cloudy.9 mph100%30.09 "HgN/A
8:50 PM59 °FBroken clouds.8 mph100%30.09 "HgN/A
8:20 PM61 °FScattered showers. Partly sunny.9 mph94%30.09 "HgN/A
7:50 PM61 °FSprinkles. Partly sunny.5 mph94%30.07 "HgN/A
7:20 PM61 °FPartly sunny.7 mph94%30.07 "HgN/A
6:50 PM61 °FPartly sunny.6 mph94%30.07 "HgN/A
6:20 PM61 °FScattered showers. Partly sunny.8 mph88%30.07 "HgN/A
5:50 PM59 °FSprinkles. Partly sunny.8 mph94%30.07 "HgN/A
5:20 PM59 °FSprinkles. Partly sunny.12 mph100%30.07 "Hg5 mi
4:50 PM66 °FScattered showers. Scattered clouds.5 mph73%30.07 "HgN/A
4:20 PM66 °FScattered showers. Scattered clouds.8 mph73%30.07 "HgN/A
3:50 PM66 °FScattered clouds.7 mph73%30.07 "HgN/A
3:20 PM66 °FScattered clouds.7 mph68%30.07 "HgN/A
2:50 PM66 °FScattered clouds.3 mph73%30.07 "HgN/A
2:20 PM64 °FScattered clouds.5 mph78%30.07 "HgN/A
1:50 PM63 °FPartly sunny.6 mph83%30.07 "HgN/A
1:20 PM63 °FBroken clouds.7 mph77%30.09 "HgN/A
12:50 PM61 °FBroken clouds.10 mph88%30.09 "HgN/A
12:20 PM61 °FPartly sunny.9 mph88%30.07 "Hg5 mi
11:50 AM61 °FBroken clouds.6 mph88%30.07 "Hg4 mi
11:20 AM57 °FBroken clouds.9 mph100%30.07 "Hg4 mi
10:50 AM57 °FFog.8 mph100%30.07 "Hg3 mi
10:20 AM57 °FFog.8 mph94%30.07 "Hg2 mi
9:50 AM55 °FFog.7 mph100%30.07 "Hg2 mi
9:20 AM55 °FFog.7 mph100%30.07 "Hg2 mi
8:50 AM55 °FFog.6 mph100%30.04 "Hg2 mi
8:20 AM55 °FFog.6 mph94%30.04 "Hg3 mi
7:50 AM54 °FFog.7 mph100%30.04 "Hg3 mi
7:20 AM54 °FFog.6 mph100%30.04 "Hg3 mi
6:50 AM54 °FFog.6 mph94%30.04 "Hg1 mi
6:20 AM52 °FFog.6 mph100%30.04 "Hg1 mi
Weather by CustomWeather, © 2014

See weather overviewHow to use our weather pages